Home   Weather   Breckenridge   Past weeks

Flag for USA Past Weather in Breckenridge, Colorado, USA — Yesterday and Last 2 Weeks

52 °F


Feels Like: 48 °F
Forecast: 47 / 65 °F
Wind: 10 mph from West

Location: Copper Mountain - Red Cliff Pass

Current Time: Oct 27, 2016 at 6:48:53 PM

Latest Report: Oct 27, 2016 at 6:16 PM

Visibility: 10 mi

Pressure: 30.59 "Hg (21.53 "Hg at 2921m altitude)

Humidity: 19%

Dew Point: 10 °F

Location of BreckenridgeLocation

Past Weather in Breckenridge — Graph


Breckenridge Temperature Yesterday

Maximum temperature yesterday: 48 °F (at 3:37 PM)
Minimum temperature yesterday: 32 °F (at 7:57 AM)
Average temperature yesterday: 40 °F

High & Low Weather Summary for the Past Weeks

High55 °F (Oct 15, 1:37 PM)87% (Oct 18, 10:37 PM)30.67 "Hg (Oct 18, 10:37 PM)
Low19 °F (Oct 20, 1:17 AM)2% (Oct 20, 7:57 AM)30.00 "Hg (Oct 17, 6:37 AM)
Average41 °F39%30.43 "Hg
* Reported Oct 12 9:17 AM — Oct 27 9:30 AM, Breckenridge, Weather by CustomWeather, © 2016

Note: Actual official high and low records may vary slightly from our data, if they occured in-between our weather recording intervals... More about our weather records


Breckenridge Weather History for the Previous 24 Hours

Scroll right to see more
Time TempWeatherWind HumidityBarometerVisibility
9:30 AM
Thu, Oct 27
48 °FSunny.8 mph20%30.67 "Hg10 mi
9:17 AM46 °FSunny.8 mph21%30.67 "Hg10 mi
8:57 AM46 °FSunny.7 mph23%30.67 "Hg10 mi
8:37 AM45 °FSunny.3 mph29%30.67 "Hg10 mi
8:17 AM41 °FSunny.7 mph33%30.65 "Hg10 mi
7:57 AM41 °FSunny.5 mph33%30.65 "Hg10 mi
7:37 AM39 °FSunny.5 mph36%30.64 "Hg10 mi
7:16 AM37 °FClear.7 mph45%30.64 "Hg10 mi
6:57 AM37 °FClear.7 mph45%30.64 "Hg10 mi
6:37 AM41 °FClear.3 mph36%30.64 "Hg10 mi
6:17 AM39 °FClear.3 mph42%30.64 "Hg10 mi
5:57 AM37 °FClear.3 mph48%30.64 "Hg3 mi
5:37 AM37 °FClear.6 mph52%30.64 "Hg5 mi
5:17 AM37 °FClear.6 mph48%30.64 "Hg4 mi
4:57 AM37 °FLight rain. Dense fog.8 mph52%30.64 "Hg1 mi
4:37 AM37 °FSnow. Dense fog.7 mph52%30.64 "Hg1 mi
4:17 AM39 °FSnow. Dense fog.6 mph42%30.63 "Hg1 mi
3:57 AM37 °FLight rain. Dense fog.7 mph52%30.64 "Hg1 mi
3:37 AM41 °FClear.8 mph31%30.64 "Hg10 mi
3:17 AM41 °FClear.8 mph31%30.64 "Hg4 mi
2:57 AM41 °FClear.8 mph28%30.64 "Hg10 mi
2:37 AM45 °FClear.8 mph25%30.64 "Hg10 mi
2:17 AM43 °FClear.9 mph24%30.64 "Hg10 mi
1:57 AM45 °FClear.6 mph19%30.64 "Hg10 mi
1:37 AM43 °FClear.7 mph21%30.64 "Hg10 mi
1:17 AM43 °FClear.6 mph21%30.64 "Hg10 mi
12:57 AM45 °FClear.6 mph19%30.64 "Hg10 mi
12:37 AM45 °FClear.7 mph19%30.64 "Hg10 mi
12:17 AM45 °FClear.8 mph18%30.64 "Hg10 mi
11:57 PM
Wed, Oct 26
45 °FClear.6 mph21%30.64 "Hg10 mi
11:37 PM45 °FClear.9 mph23%30.64 "Hg10 mi
11:17 PM45 °FClear.8 mph27%30.64 "Hg10 mi
10:57 PM45 °FClear.8 mph31%30.64 "Hg10 mi
10:37 PM45 °FClear.9 mph29%30.64 "Hg10 mi
10:17 PM45 °FClear.5 mph29%30.64 "Hg10 mi
9:57 PM45 °FClear.5 mph29%30.65 "Hg10 mi
9:37 PM41 °FClear.5 mph31%30.65 "Hg10 mi
9:17 PM41 °FClear.3 mph45%30.64 "Hg10 mi
8:57 PM41 °FClear.No wind39%30.64 "Hg10 mi
8:37 PM45 °FClear.3 mph27%30.64 "Hg10 mi
7:57 PM43 °FClear.No wind29%30.64 "Hg10 mi
7:37 PM41 °FClear.No wind36%30.64 "Hg10 mi
7:17 PM45 °FClear.No wind27%30.64 "Hg10 mi
6:57 PM43 °FClear.6 mph29%30.64 "Hg10 mi
6:37 PM41 °FClear.7 mph31%30.63 "Hg10 mi
6:17 PM45 °FClear.12 mph25%30.63 "Hg10 mi
Weather by CustomWeather, © 2016

See weather overviewHow to use our weather pages